Theta_e
271 273 274 274 274 274 277 278 278 278 278 278 279 279 279 280 281 282 282 283 283 283 283 283 282 284 284 285 287 288 288 288 282 276 278 278 278 278 277 277 278 277 277
271 273 274 274 271 270 274 277 278 278 279 279 279 279 279 279 280 280 279 280 280 280 280 281 280 282 281 282 283 284 284 284 282 276 275 276 276 277 276 276 277 277 276
269 270 272 273 273 271 274 278 278 278 278 278 278 278 278 278 278 279 279 278 278 278 278 278 279 280 279 280 281 280 281 281 280 277 275 276 275 275 274 275 274 275 275
268 269 270 272 273 275 276 277 278 278 278 277 277 277 277 278 278 278 278 278 278 278 278 278 278 278 278 279 279 279 279 278 278 276 275 274 273 274 273 272 272 273 273
267 270 271 272 273 274 275 276 277 278 279 279 278 278 278 278 277 276 277 277 276 277 279 280 281 280 280 279 277 277 277 277 276 275 273 272 271 271 271 271 271 270 271
269 269 269 272 274 274 275 276 276 277 277 278 278 278 278 280 281 280 278 276 276 276 275 276 276 279 282 282 282 281 278 276 274 274 272 270 270 270 270 270 269 268 267
273 274 274 272 273 274 275 276 275 275 276 276 277 278 278 279 281 280 278 277 276 275 275 274 274 274 275 276 279 280 279 280 277 272 271 270 269 270 271 269 269 268 268
273 274 275 275 275 274 274 273 274 275 275 274 274 276 278 279 280 279 278 275 275 274 274 274 273 273 273 273 273 273 273 273 273 272 271 270 270 272 271 271 270 268 267
270 272 273 275 275 275 274 274 274 274 274 275 276 275 275 277 280 279 276 274 274 273 274 274 274 274 277 277 273 272 272 273 278 278 278 278 278 277 274 268 261 260 261
271 272 272 272 272 272 274 275 275 275 275 275 275 275 275 275 278 278 275 275 273 273 273 274 278 276 278 277 272 271 269 269 270 268 269 272 271 271 275 269 266 259 259
271 272 272 272 271 272 271 271 271 271 271 269 270 271 272 274 276 278 277 274 273 272 272 271 272 278 278 277 275 271 271 271 271 266 266 265 265 266 266 267 267 264 259
269 269 268 267 270 270 265 267 267 267 266 266 266 268 269 271 276 278 278 276 275 271 271 270 271 278 278 278 276 275 277 272 263 261 261 262 262 264 265 265 266 266 265
266 264 263 265 269 269 265 266 266 264 265 266 267 266 267 269 270 277 279 279 278 272 271 272 274 276 279 276 279 278 273 264 261 258 262 262 262 263 262 261 261 261 262
265 265 264 264 266 265 269 269 267 265 265 267 266 267 266 266 268 268 270 268 273 274 275 269 273 276 277 274 267 272 266 266 265 264 264 262 260 259 260 261 259 259 257
265 266 266 266 265 266 268 267 269 268 268 265 265 265 262 265 268 273 272 269 267 271 263 260 262 263 265 266 265 265 265 263 263 264 262 262 261 261 262 261 260 256 259
267 266 267 267 265 266 265 266 273 276 277 278 279 274 268 274 278 278 279 280 280 279 265 264 266 267 268 268 268 267 266 265 266 266 265 265 264 263 263 260 261 259 260
267 268 266 266 265 265 263 264 266 268 276 278 280 280 281 281 281 281 281 281 281 280 275 270 270 271 270 269 269 269 269 267 268 266 266 265 264 264 262 263 262 261 260
267 266 266 266 266 264 264 265 263 262 265 263 271 277 279 280 281 282 282 282 277 277 275 274 273 273 271 270 271 269 269 269 266 267 266 265 265 264 261 261 263 262 262
267 267 266 267 265 265 263 262 263 262 263 265 264 269 269 276 278 279 281 277 275 274 274 273 274 274 273 273 273 272 272 272 271 268 268 267 266 265 264 265 264 264 264
266 267 266 266 265 262 262 263 263 263 264 265 266 267 259 258 258 264 267 270 272 274 275 275 275 275 274 274 274 274 273 271 270 270 270 269 267 266 265 266 264 263 263
267 266 266 262 262 262 264 263 264 262 265 266 268 269 271 262 266 265 263 264 268 269 270 271 271 272 273 274 273 273 272 272 272 271 270 269 268 266 266 266 265 264 263
268 266 263 266 265 262 263 264 262 264 266 266 268 269 273 269 268 269 268 268 269 269 269 269 269 270 270 270 270 269 269 269 269 270 269 268 268 267 266 265 264 264 263
267 267 264 261 262 262 263 263 263 264 264 265 266 266 267 267 266 267 267 268 270 270 271 271 271 270 270 270 270 270 270 270 270 271 269 269 268 266 266 264 264 263 263
265 265 266 266 266 264 263 262 264 264 264 265 265 266 266 267 267 268 268 269 270 271 271 271 271 271 271 272 272 272 272 272 272 271 270 269 268 267 266 264 264 263 263
267 265 267 267 266 266 267 267 266 266 266 265 265 266 266 267 268 269 269 270 270 270 271 271 271 271 271 271 271 271 271 272 271 271 270 269 267 266 265 264 264 263 263
267 266 266 266 265 265 265 265 265 265 266 266 267 267 267 267 268 268 268 268 268 268 268 268 268 269 269 269 269 270 270 271 270 269 269 268 267 265 265 264 264 263 262
Wind_Speed
6 5 5 5 5 4 3 3 3 3 3 3 1 1 3 3 7 2 8 5 1 5 6 5 4 5 5 2 1 2 2 3 5 2 3 3 4 5 6 4 4 2 2
5 5 5 4 4 3 3 3 4 3 3 2 3 3 3 7 5 7 8 5 3 4 2 5 5 4 7 4 3 3 5 4 3 7 4 3 3 5 6 4 2 1 1
5 4 4 4 3 3 5 5 5 5 5 5 6 5 7 6 8 7 8 3 6 6 6 6 5 5 6 4 4 5 4 3 4 6 5 3 3 4 3 3 3 3 2
4 4 4 5 5 5 5 6 5 4 6 7 7 7 7 8 7 8 6 7 8 8 9 9 7 8 8 5 5 6 5 7 8 8 7 5 4 3 2 2 2 1 0
4 4 4 4 5 5 7 7 7 7 6 6 7 7 7 6 5 8 8 9 9 10 10 11 10 11 15 10 5 6 7 8 7 8 6 4 4 4 3 3 2 1 1
5 4 3 3 4 5 6 7 7 8 7 8 8 7 8 7 17 16 9 7 8 8 10 8 8 11 18 21 20 16 9 8 9 5 3 5 3 3 3 2 3 2 2
5 4 4 4 4 5 5 6 7 6 6 7 7 7 8 8 15 14 13 6 7 7 7 7 8 7 9 9 17 19 15 13 7 5 8 4 5 6 5 3 3 2 2
4 4 4 4 4 4 4 5 4 4 5 4 5 5 7 8 14 13 12 7 7 7 6 5 7 7 6 6 8 8 7 7 6 5 5 5 5 6 4 2 3 2 1
2 3 3 3 3 4 4 4 4 4 4 4 4 5 5 6 10 9 7 5 6 6 5 5 5 5 9 9 6 7 6 5 9 12 12 11 10 10 7 4 2 3 1
3 2 1 1 2 2 2 2 2 3 4 4 5 5 5 4 5 6 4 3 5 3 4 4 6 5 7 6 4 4 4 3 3 4 3 4 4 2 8 4 4 3 2
3 3 2 2 3 4 3 0 2 2 3 4 3 3 4 4 2 3 3 2 2 2 2 2 3 3 4 4 4 2 2 4 4 3 2 2 1 1 1 2 5 4 3
2 2 3 3 3 2 1 2 2 2 3 1 1 2 2 3 5 1 2 2 4 2 2 2 2 4 4 4 3 4 5 6 2 2 1 2 3 3 4 4 5 6 5
3 3 3 3 3 2 2 2 1 1 0 1 2 2 3 3 3 7 5 5 6 2 1 4 7 8 9 6 9 8 3 3 3 1 4 3 3 2 2 1 2 3 6
6 5 3 3 4 2 2 3 2 3 2 3 3 4 3 3 3 2 3 2 5 4 5 3 6 9 10 9 3 6 1 4 5 5 4 2 0 0 2 3 3 3 2
6 5 5 4 4 4 4 4 5 3 4 4 4 3 3 5 4 8 7 4 3 5 1 1 1 2 3 4 4 5 4 3 5 6 5 6 5 4 6 5 4 2 6
7 6 7 6 4 5 4 5 11 16 15 16 17 10 4 13 15 14 13 14 15 14 0 4 5 7 8 8 7 7 6 8 9 8 8 8 9 8 8 4 6 6 8
11 7 5 6 5 5 3 5 7 4 11 18 21 20 19 18 17 17 17 17 18 15 9 7 9 9 9 8 8 8 10 8 8 8 8 9 8 7 6 7 7 7 8
11 9 7 7 6 5 5 6 4 4 6 4 9 14 16 19 20 21 20 17 9 11 10 10 11 9 9 10 10 9 9 8 7 8 8 8 8 8 6 8 8 9 9
10 9 9 8 6 6 5 5 5 5 7 8 5 7 7 17 19 21 21 10 10 10 9 11 11 11 11 10 10 9 10 10 9 8 8 8 8 7 8 9 8 11 11
9 12 9 8 6 5 5 6 5 6 7 7 7 8 2 0 2 5 6 7 9 10 10 11 10 10 11 11 10 10 9 9 9 9 9 8 8 8 9 9 9 9 9
7 6 9 3 4 4 5 6 6 4 7 7 8 6 11 5 7 5 4 6 9 10 10 10 10 10 10 10 9 9 10 10 10 10 9 8 8 9 9 9 9 9 9
6 4 5 7 4 4 5 5 4 6 7 8 8 7 16 6 6 8 8 8 8 8 8 9 9 9 9 9 9 9 10 11 10 9 9 9 9 9 9 8 8 8 8
3 4 3 2 3 3 3 4 4 5 6 6 7 7 6 6 6 7 8 8 8 8 8 8 9 9 9 9 10 10 11 11 10 8 9 9 9 9 8 9 9 8 8
3 3 3 3 3 3 3 3 4 5 6 6 6 6 6 7 7 8 8 8 8 8 8 9 9 12 10 10 9 8 9 9 8 9 12 10 9 9 8 8 8 9 8
2 2 1 1 0 1 2 2 3 4 4 5 5 5 6 6 7 7 7 7 7 8 8 9 9 11 13 14 13 14 14 16 13 10 8 10 10 10 9 8 8 8 10
6 6 4 4 4 3 3 3 3 3 3 4 5 5 6 6 7 7 7 8 8 8 11 8 10 14 15 13 14 14 15 16 14 15 11 9 8 8 8 9 12 9 9
Wind_Direction
308 304 307 305 309 312 309 314 322 328 359 25 317 261 20 30 43 76 73 69 47 37 10 54 47 83 89 26 100 64 52 94 115 95 95 139 113 129 91 74 66 95 134
308 312 320 321 321 332 335 2 355 1 8 28 21 62 75 64 53 56 77 54 92 97 85 78 55 57 62 52 57 79 83 44 116 134 119 135 81 122 109 106 95 25 281
320 332 350 344 340 348 13 29 16 10 22 29 46 42 58 68 79 56 63 73 86 77 84 84 66 93 83 73 74 77 79 93 86 122 127 112 99 113 114 123 171 208 230
339 4 8 6 7 22 27 29 38 29 38 47 47 51 47 52 73 89 111 104 90 77 67 68 65 60 70 77 82 85 97 92 94 105 100 105 106 140 98 149 186 149 284
355 4 0 8 17 23 37 38 42 39 44 53 64 64 76 84 84 80 74 77 79 73 68 69 72 85 90 84 82 86 98 96 101 107 102 115 119 146 177 158 136 113 303
359 354 4 23 46 41 46 48 50 47 44 50 54 61 61 71 83 86 84 87 86 83 79 67 56 61 75 79 81 82 87 111 115 104 115 136 129 126 146 168 115 150 188
353 0 8 16 45 43 53 58 55 52 55 51 57 68 75 79 90 94 88 82 84 78 86 89 80 65 62 72 76 74 69 81 98 134 142 152 146 181 147 142 159 150 184
348 5 13 21 40 41 48 50 42 55 60 45 41 48 87 91 91 93 93 85 84 73 72 79 93 94 89 93 90 81 72 69 64 80 99 121 129 136 130 131 129 112 345
327 3 11 38 54 43 50 38 26 33 39 42 49 47 49 84 108 112 97 80 80 73 68 66 78 91 113 116 100 98 88 67 97 108 118 121 128 142 150 102 68 89 293
266 232 235 76 59 68 83 86 28 21 42 33 49 35 45 74 115 118 102 91 93 65 54 61 101 104 109 114 108 138 128 144 98 56 40 78 81 161 182 160 149 128 174
259 257 256 222 170 172 165 29 113 84 75 44 45 16 24 15 5 101 92 46 54 54 32 1 342 122 117 118 120 104 157 139 187 137 77 18 349 265 254 159 177 158 163
210 247 265 292 291 322 340 347 23 108 122 122 53 327 318 329 344 310 208 190 183 151 207 229 251 228 221 230 185 217 215 147 103 117 206 244 232 229 228 209 202 215 230
198 242 257 284 270 205 176 201 152 118 113 295 316 314 304 318 318 296 270 241 231 200 221 244 243 254 253 264 257 239 246 126 139 181 236 241 211 222 140 105 302 273 264
213 227 223 237 256 248 252 204 203 203 217 225 228 245 254 269 260 260 263 294 300 265 237 270 261 255 247 250 271 269 167 191 193 222 236 244 345 174 215 179 197 194 234
215 221 225 216 226 242 228 215 225 223 198 209 232 215 220 265 248 236 229 235 234 243 110 22 269 264 264 263 254 241 240 213 220 227 236 236 225 210 229 188 208 188 218
216 224 225 219 215 222 229 276 252 253 251 252 257 241 218 248 276 274 267 262 253 244 186 227 241 238 241 244 241 244 227 226 229 228 227 228 234 223 228 196 202 200 231
217 216 210 217 216 222 218 223 264 291 268 259 258 260 260 264 262 261 262 264 261 257 244 231 245 242 243 240 239 235 243 221 216 215 224 230 227 232 211 230 228 224 237
211 213 204 212 212 202 212 224 214 232 265 279 263 254 263 266 268 268 267 272 259 249 245 246 249 243 237 239 238 232 236 233 213 222 222 225 222 222 213 225 226 231 236
208 217 212 219 212 210 195 210 220 226 239 258 286 270 255 267 271 269 265 254 250 247 237 242 245 247 245 244 244 239 236 236 230 220 226 223 219 217 230 235 233 233 237
218 224 207 211 209 204 211 225 234 234 248 256 258 260 243 64 261 243 237 249 257 260 260 256 254 250 250 251 252 249 245 239 239 238 239 227 223 216 230 237 227 234 232
215 213 212 191 198 205 220 223 232 222 248 254 259 250 243 221 257 250 234 228 239 248 256 261 264 264 265 264 260 255 251 251 249 245 239 230 227 227 230 233 232 232 234
201 186 167 212 204 198 217 225 210 234 249 259 273 274 279 270 268 266 260 256 250 245 246 254 259 259 259 259 259 256 255 254 251 246 240 230 230 228 229 226 228 232 231
165 164 160 165 179 183 212 214 223 241 252 257 268 277 275 265 251 253 260 267 271 273 270 264 261 260 252 251 248 247 249 249 247 240 236 239 233 227 222 223 225 227 225
139 147 159 172 184 206 218 230 233 243 257 265 267 267 268 272 275 273 271 272 272 271 268 268 268 268 271 267 264 258 256 257 253 250 246 243 238 226 221 223 223 222 229
102 90 92 344 300 288 288 279 275 269 265 262 266 263 267 269 277 282 286 285 283 282 280 278 274 273 270 269 265 265 265 266 258 252 247 246 237 224 215 220 221 224 227
62 61 58 53 47 35 24 2 339 326 333 330 324 319 314 313 317 321 321 319 314 313 305 296 289 288 289 288 283 278 272 268 262 253 245 244 231 223 222 220 224 224 225